User: anonymous
Location: Caltech
(34.1382°N, 118.1253°W)
Time: 02:49:44
(UTC-07:00)
Language:

Meteor 2-4 Rocket - Orbit

View from above orbital plane
View from above orbital plane
View from above satellite
View from above satellite

Ground track
Ground track

The orbit data is extracted from the following two-line orbital elements,

1 11289U 79021B   14212.78281781  .00000037  00000-0  13549-4 0  6894
2 11289 081.2467 109.8385 0075210 337.5154 052.5579 14.11434601822514
Epoch (UTC): 31 July 2014 18:47:15
Eccentricity: 0.0075210
inclination: 81.2467°
perigee height: 800 km
apogee height: 909 km
right ascension of ascending node: 109.8385°
argument of perigee: 337.5154°
revolutions per day: 14.11434601
mean anomaly at epoch: 52.5579°
orbit number at epoch: 82251

The dashed part of the orbit path shows where the satellite is in the earth's shadow,  

DLR